Retour au catalogue

STARLINK-6046

ActifCommunicationsVLEO
NORAD 56792·PAYLOAD·🇺🇸 United States

Lancé May 31, 2023 depuis Vandenberg Space Force Base

Loading…

Prochains Passages (prochaines 24 heures)

TLE

FraisSource: CelesTrak SupGP

Époque: Sep 15, 2026, 01:29 UTC

1 56792C 23078AB  26258.06229167 -.00045891  00000+0 -38459-2 0  2582
2 56792  70.0013 227.1282 0003016 270.8234  54.3039 14.98353201    13

Suivez STARLINK-6046 en temps réel avec AllMySat

Download on the App Store